Starlink 31255

operational
NORAD ID: 58893 Int'l Des: 2024-020 Owner: SPXS Country: US Constellation: starlink
LEOCIRCULAR

关于 Starlink 31255

正在加载描述...

实时位置

正在加载3D地球...

即将过境

高度历史

Altitude vs Time

uPlot chart will show altitude changes over time

两行轨道根数

1 58893U 24020T 25259.12722975 .00000698 00000-0 35692-4 0 9991
2 58893 53.1613 53.3271 0001039 88.4944 271.6176 15.30194208 91345
Epoch: Sep 16, 2025 • Age: 15 hours

当前状态

高度 487.4 km
速度 7.62 km/s
星下点 -36.20°S, 103.49°E
发射日期 Jan 29, 2024
运行时间 1.6 years
类型 internet

技术详情

分类 Payload
质量 730.00 kg
干质量 700.00 kg
总质量 730.00 kg
长度 0.30 m
直径 4.10 m
跨度 29.00 m
形状 Box + pan
制造商 SPXS
平台类型 Starlink V2M
阶段状态 In Orbit
所有者/国家 SPXS/US

大型星座

Loading constellations...